GFSMW_2pvu_pres_057.txt.gz
Presure
130 136 136 135 214 215 217 229 208 205 199 204 194 198 191 184 192 192 191 194 217 238 224 216 202 200 202 210 222 227 225 231 224 218 218 227 219 209 206 202 197 196 202
220 211 225 203 215 203 201 202 198 196 197 200 203 200 196 196 193 196 213 235 222 211 201 201 208 223 219 216 216 219 224 227 218 212 208 201 200 199 197 195 201 203 202
205 202 197 203 197 205 202 199 195 187 188 188 185 190 193 200 222 231 218 205 200 207 225 222 220 207 221 221 215 219 209 209 216 228 227 217 210 207 200 198 200 202 203
202 201 203 199 198 196 186 189 194 200 202 205 206 205 227 226 219 199 197 225 223 217 213 207 206 202 199 203 205 198 236 237 234 222 211 212 217 211 202 198 196 204 206
203 204 199 198 190 195 210 209 209 207 204 209 228 228 216 197 198 204 212 214 209 204 201 196 199 194 192 190 211 215 227 233 223 224 218 211 198 195 201 203 202 206 216
198 203 209 210 201 204 205 213 226 223 223 221 213 200 193 211 213 223 207 209 207 198 196 193 188 194 198 200 215 220 250 245 234 217 206 204 205 215 220 216 228 229 246
202 210 215 216 220 221 219 215 230 213 206 204 190 196 218 214 225 209 212 203 200 195 193 193 188 184 210 211 230 255 237 220 215 212 212 207 224 234 254 262 279 287 293
209 206 219 217 212 229 226 213 198 202 192 200 202 217 211 206 199 198 196 206 199 192 195 192 176 190 219 226 241 225 214 209 213 232 242 233 239 266 267 278 291 288 310
218 207 232 229 218 208 202 199 200 195 199 217 213 208 202 204 199 195 191 202 198 188 190 197 185 219 222 231 214 208 208 221 224 240 237 255 263 269 273 289 298 308 377
212 218 216 206 200 198 203 198 197 201 212 205 204 201 190 193 192 184 190 197 198 197 198 188 214 229 223 206 209 216 219 228 242 243 256 264 267 273 282 293 354 385 442
220 210 202 193 194 196 196 200 210 211 205 201 198 197 188 199 197 190 196 191 195 195 190 212 242 221 202 211 213 215 232 246 249 265 265 260 278 277 311 350 418 430 405
207 201 200 191 194 196 193 202 203 206 204 203 195 195 184 192 193 191 184 194 195 206 214 240 219 202 210 207 215 228 246 247 266 265 269 280 279 290 373 417 428 396 385
203 196 193 197 194 193 199 201 195 200 201 203 205 207 193 191 191 184 195 201 205 217 241 212 203 207 216 215 235 245 249 262 260 279 278 282 297 386 433 428 395 385 395
198 194 193 191 193 195 200 199 200 205 208 215 199 192 191 195 191 204 203 211 221 246 225 207 206 218 221 229 248 249 260 269 276 275 282 295 369 440 423 395 382 372 405
194 196 192 197 199 202 205 204 206 212 193 189 194 194 192 204 201 204 207 221 227 212 206 211 215 216 237 247 250 264 257 279 274 282 287 306 427 427 403 381 373 370 383
199 199 200 202 202 200 199 188 191 190 195 201 191 201 206 202 202 206 210 220 227 208 212 215 218 237 246 246 265 256 269 275 282 318 345 420 430 410 383 372 366 395 365
197 200 199 194 199 191 190 193 195 199 192 190 209 204 201 201 205 213 222 216 205 212 212 224 238 245 248 263 271 263 277 288 335 414 419 428 409 386 373 365 355 378 355
198 201 184 187 190 189 188 196 199 184 199 206 204 194 199 205 211 220 221 209 207 212 226 237 249 249 263 270 268 271 277 384 424 420 425 412 390 371 363 354 387 362 346
196 188 195 198 192 202 209 206 197 194 207 199 193 197 205 210 216 226 213 205 211 229 241 253 250 265 271 261 275 279 393 409 421 413 416 394 370 363 355 352 373 352 341
192 189 193 200 205 196 205 202 193 199 199 194 204 205 204 218 228 215 204 220 237 244 249 251 270 257 269 277 278 400 438 425 405 395 397 376 363 357 350 341 365 345 335
190 195 186 203 196 205 190 193 201 199 194 204 206 207 221 228 216 199 222 238 243 249 251 262 262 264 276 291 382 426 418 407 392 384 384 364 354 350 344 380 359 344 332
194 186 204 193 193 196 193 194 198 193 203 205 213 224 235 217 199 227 236 242 252 260 265 268 269 273 279 410 422 419 403 389 384 377 370 355 348 343 341 373 355 342 330
190 201 202 201 189 193 191 200 208 206 202 218 222 240 227 219 233 232 244 253 263 262 268 281 285 281 400 415 411 396 392 378 374 374 361 350 345 340 353 372 353 339 329
200 212 201 197 194 191 197 206 205 208 215 216 225 244 222 231 239 246 258 264 257 259 274 286 367 396 422 410 398 400 386 379 367 357 356 347 341 337 359 370 352 334 333
202 201 196 193 189 203 207 205 213 215 217 195 245 224 236 242 249 259 266 270 269 267 278 397 388 397 409 402 390 396 389 380 363 351 353 345 340 333 352 371 353 337 331
205 195 194 188 205 206 209 217 216 204 221 250 233 239 245 250 266 270 270 274 283 284 394 377 389 395 399 386 368 359 383 378 366 354 353 340 337 332 334 376 359 342 331

GFSMW_2pvu_pres_063.txt.gz
Presure
129 124 128 131 135 133 129 127 192 192 192 198 225 209 195 192 194 192 194 196 204 198 194 186 186 193 195 203 196 214 205 195 217 215 199 204 196 199 202 203 202 202 195
132 187 147 193 205 135 206 189 200 186 219 205 201 201 194 195 189 200 201 203 194 188 189 195 194 201 217 221 206 194 217 209 203 193 191 192 197 206 205 200 194 198 243
174 198 172 194 196 166 153 194 208 218 225 220 217 217 218 210 201 202 192 191 192 194 199 214 225 214 205 193 197 208 198 197 199 197 200 192 195 196 193 193 237 245 225
134 201 202 204 199 202 225 222 198 206 212 209 205 207 206 197 192 192 195 198 201 222 223 208 201 194 196 204 203 193 199 191 199 207 198 197 191 198 208 234 228 216 208
201 171 199 196 211 215 211 196 193 194 202 198 200 193 192 194 199 205 214 230 213 210 200 194 195 216 208 204 198 196 187 192 206 191 194 193 201 212 234 245 209 203 209
209 216 219 212 212 202 204 203 204 198 205 204 204 209 205 219 226 219 216 207 198 194 196 213 209 202 201 201 201 201 207 193 195 195 201 203 222 230 217 213 209 211 214
220 213 215 208 205 203 198 203 206 209 205 202 209 222 217 219 212 203 195 195 195 204 203 204 198 199 200 203 198 196 194 195 197 207 211 216 234 221 216 215 219 217 238
216 213 203 215 209 202 206 199 203 203 208 210 206 220 208 202 192 194 191 193 205 203 204 211 215 207 197 192 198 200 193 207 202 213 229 232 232 220 222 215 231 267 263
213 212 209 204 204 207 211 211 206 209 205 225 211 201 194 191 191 190 198 203 207 208 203 199 192 190 203 198 194 208 205 212 215 239 239 235 222 219 221 258 266 263 261
208 214 214 212 209 211 209 206 203 222 212 202 200 193 191 192 191 196 203 204 197 191 192 196 205 202 192 198 206 210 215 221 223 246 246 209 221 234 261 265 261 273 286
205 205 214 213 206 201 202 225 214 204 198 197 192 193 195 194 200 205 201 194 194 193 195 206 200 195 203 204 214 210 217 220 230 239 207 222 247 270 258 265 276 290 300
219 213 205 207 208 226 219 206 194 193 192 193 194 196 196 208 189 184 197 191 190 204 196 195 200 201 219 211 211 215 224 233 247 203 228 253 275 263 269 283 298 329 385
211 205 236 232 213 206 199 200 195 195 195 194 197 202 203 189 185 189 191 197 190 194 199 202 195 213 203 212 216 228 254 227 227 249 259 267 270 272 281 296 353 443 446
205 235 208 206 201 198 194 193 194 196 199 198 200 198 190 184 190 193 199 189 196 197 200 190 210 212 217 219 233 227 219 248 251 260 270 272 271 282 297 432 429 426 423
226 203 200 199 199 199 198 195 195 194 198 196 197 188 183 189 193 208 194 198 204 197 193 207 217 220 220 240 223 225 246 252 259 272 266 276 292 305 439 421 417 413 399
203 199 197 197 194 199 200 200 202 201 190 194 193 184 193 204 209 195 207 202 197 202 201 223 222 225 243 221 240 249 250 262 271 263 268 298 400 423 409 401 415 399 391
210 207 206 203 201 191 200 196 189 191 193 190 188 199 211 200 197 199 205 189 204 201 218 224 228 210 222 247 247 254 272 268 270 278 314 424 418 397 372 409 405 395 387
199 198 196 199 194 186 187 189 192 190 184 196 203 202 210 189 202 203 182 204 211 214 221 234 212 226 238 250 257 265 257 273 289 336 421 411 387 364 412 395 390 390 382
200 198 198 196 198 192 190 190 194 193 198 203 185 197 209 207 203 182 203 213 214 221 237 214 229 234 250 257 260 281 266 278 380 415 406 374 362 403 400 376 366 387 372
205 201 200 200 202 201 201 195 193 201 199 200 203 210 206 194 191 203 215 213 211 235 217 232 231 255 253 263 286 270 279 354 418 393 361 376 398 391 389 360 359 379 367
201 199 192 192 193 195 203 197 199 195 193 206 204 205 191 203 204 217 208 223 235 221 231 236 250 258 265 277 272 283 316 417 370 363 388 393 389 382 377 351 348 374 365
199 199 200 201 204 201 199 194 194 199 204 210 201 198 205 196 216 208 223 234 230 235 236 245 258 264 271 271 280 370 404 375 372 396 389 388 374 370 370 345 344 341 363
211 206 205 203 195 201 203 197 201 201 202 201 184 204 193 214 213 220 227 233 239 237 243 255 265 280 267 276 299 398 382 374 397 398 382 368 359 360 362 346 343 347 350
207 211 210 194 193 194 196 203 197 198 201 210 203 203 217 221 216 231 236 242 239 244 254 267 282 289 276 290 399 387 381 399 395 377 362 360 359 355 352 348 341 343 337
205 209 208 201 197 202 206 210 207 207 214 203 195 232 222 217 237 237 240 239 243 250 264 278 280 282 296 405 393 395 405 385 375 369 445 435 420 377 305 343 331 336 335
206 206 205 206 206 213 214 210 196 209 209 215 220 219 229 241 238 236 239 241 244 263 275 279 280 296 415 397 402 405 387 376 397 421 417 431 421 398 361 342 335 342 338

GFSMW_2pvu_pres_069.txt.gz
Presure
243 214 190 124 133 116 115 222 121 126 126 133 132 127 125 125 134 135 201 196 195 193 181 217 205 202 205 208 196 194 191 191 203 220 195 202 196 208 207 206 215 222 212
212 136 203 149 214 125 123 126 125 125 133 140 150 152 154 133 131 149 209 199 208 209 206 215 202 197 193 188 197 199 209 209 197 209 201 201 209 216 216 204 194 197 206
173 196 118 129 130 130 131 121 156 130 129 218 162 178 163 202 201 197 193 211 208 198 187 186 191 198 197 200 214 210 204 204 196 200 204 211 207 199 199 201 204 208 207
214 214 127 123 124 167 125 132 134 167 200 189 202 162 200 200 202 181 194 211 208 199 198 196 191 197 207 207 201 208 197 196 199 204 208 197 198 200 200 195 200 201 206
208 205 157 135 153 138 203 131 200 202 133 126 195 199 187 199 202 207 212 210 191 193 203 204 199 210 204 204 207 195 196 196 203 195 189 193 200 200 194 204 208 206 200
214 207 209 183 201 202 201 202 150 155 200 195 198 197 192 190 210 206 196 209 209 206 203 209 207 203 208 199 196 195 195 201 194 189 192 197 192 203 202 203 208 196 201
212 213 215 211 206 204 202 206 208 207 201 215 207 202 215 213 207 208 203 200 208 204 207 205 205 205 196 197 195 199 202 193 186 192 195 192 208 207 208 208 196 223 236
212 213 214 218 213 219 218 217 220 214 213 210 210 206 195 199 211 203 204 204 203 203 203 206 196 197 195 194 198 197 190 184 189 195 206 206 199 206 202 198 239 234 228
225 212 210 207 204 204 206 211 216 220 211 204 205 212 212 206 203 203 202 196 197 205 202 197 199 195 202 195 190 192 185 197 210 206 199 205 203 207 224 237 236 246 251
222 221 218 218 221 218 215 214 213 210 207 207 208 208 203 202 202 196 194 213 195 202 201 198 199 196 185 190 193 185 205 202 197 206 205 204 201 224 235 245 242 248 248
212 213 215 217 215 216 212 209 207 203 205 199 202 204 199 201 196 206 210 199 196 197 199 200 197 186 193 191 194 202 199 196 205 204 206 198 225 234 246 240 243 249 269
213 215 217 215 216 207 201 203 208 208 210 210 203 201 201 225 209 198 202 199 199 201 203 187 187 191 197 201 201 196 202 203 199 209 234 226 230 246 242 254 247 260 285
206 209 212 214 214 218 213 206 203 203 199 201 207 226 204 202 203 198 197 200 204 194 186 191 193 198 195 197 196 201 204 203 211 222 224 226 245 242 261 245 259 281 296
207 220 222 206 211 207 198 199 200 209 231 227 214 199 196 188 198 200 195 189 191 190 184 196 193 197 197 187 196 192 212 214 224 227 219 240 242 259 243 257 276 293 305
214 211 210 214 209 203 209 210 202 206 221 206 205 205 203 202 200 204 201 200 204 199 194 199 201 185 194 196 201 211 215 223 231 213 240 242 253 243 256 274 288 313 298
203 207 209 209 210 206 201 203 205 206 205 201 195 195 200 201 198 195 201 198 198 201 197 183 201 193 204 209 209 211 217 228 208 240 241 258 240 256 273 288 315 295 357
217 214 203 208 210 208 205 202 203 201 197 198 202 206 207 202 202 200 198 202 195 186 187 194 202 209 207 213 207 220 228 225 244 240 246 240 258 269 288 313 296 352 406
213 212 208 204 208 206 210 211 211 210 211 210 206 203 202 200 200 203 203 197 208 200 199 200 208 206 211 205 221 225 235 247 241 240 240 260 266 288 311 297 363 408 399
205 211 213 214 209 210 209 207 205 205 204 203 203 203 204 203 203 200 208 206 208 198 196 206 209 211 200 223 223 234 250 243 238 238 259 272 290 306 294 367 414 403 394
208 203 203 207 208 213 210 196 194 197 202 205 210 210 208 204 195 212 201 208 201 192 204 207 218 209 221 223 235 252 245 246 239 260 275 289 301 306 360 416 403 394 387
218 214 210 202 202 203 214 210 204 205 204 194 208 210 207 205 215 213 207 199 196 212 207 222 209 223 222 235 250 243 240 245 262 278 294 296 307 432 414 400 395 428 429
233 224 216 210 206 205 205 203 205 205 205 205 207 208 203 209 210 199 201 212 216 217 214 212 226 223 237 249 239 240 243 262 278 289 299 309 422 414 400 430 417 413 428
248 238 231 224 217 217 214 211 205 205 205 204 205 205 215 212 202 204 212 219 208 215 225 229 228 240 251 233 241 242 259 276 287 293 311 431 416 436 424 406 386 380 382
273 264 245 235 229 222 210 214 215 216 216 215 216 220 217 215 222 209 216 212 227 231 234 234 248 250 235 243 252 266 281 287 315 320 437 419 440 416 398 387 387 376 364
235 237 249 261 260 249 239 227 222 225 226 226 227 225 225 224 194 230 231 233 239 231 243 250 237 244 243 263 271 283 296 317 318 433 417 423 420 393 379 398 469 432 408
211 225 230 240 263 259 255 259 255 248 244 240 238 238 239 220 235 237 237 232 232 249 236 234 241 246 270 274 284 293 327 315 408 422 426 415 398 382 371 374 374 399 386

GFSMW_2pvu_pres_072.txt.gz
Presure
134 161 229 207 235 135 131 212 215 213 225 126 129 146 142 136 123 125 131 138 126 141 210 131 197 190 189 204 205 215 200 197 201 199 205 220 212 204 198 194 206 210 200
153 223 216 129 232 140 129 203 151 184 123 120 130 136 193 130 130 133 133 200 199 187 199 202 207 198 199 208 222 204 203 200 204 206 207 208 205 191 191 205 207 199 195
140 128 213 232 127 203 233 221 210 134 127 119 123 128 171 133 133 165 162 205 201 200 197 202 196 206 214 197 192 195 203 207 202 217 206 201 194 199 207 204 195 193 197
140 213 221 228 228 208 146 212 119 124 207 127 116 124 189 146 128 199 201 186 192 201 197 183 213 213 202 207 213 206 204 219 209 204 194 192 198 206 201 196 191 190 193
218 217 220 131 122 166 216 133 138 125 131 198 217 202 189 140 193 200 204 213 205 199 214 216 204 200 204 201 207 210 213 209 207 197 197 197 201 191 195 189 190 197 210
213 220 213 148 145 210 207 205 192 156 205 207 205 200 198 198 197 199 194 214 195 211 195 204 209 209 217 211 207 207 212 198 198 194 202 195 191 195 188 197 207 200 209
215 217 212 210 211 204 204 206 206 200 193 193 197 207 204 205 209 210 216 207 213 201 201 206 208 208 205 199 216 208 199 202 195 203 193 195 193 192 201 202 203 212 207
230 230 238 216 203 199 209 210 214 213 218 217 214 213 215 211 203 206 206 208 206 209 200 203 204 201 202 218 202 197 196 200 201 191 192 193 196 203 201 205 204 204 217
218 220 217 216 219 222 217 217 213 210 206 204 210 210 208 208 215 220 220 206 202 203 203 202 196 206 214 201 199 195 204 199 192 193 195 200 204 198 202 201 213 225 234
209 210 217 222 223 221 221 222 220 220 216 213 211 209 209 209 207 207 206 208 203 200 195 213 217 206 200 196 198 202 186 191 194 196 200 204 200 201 206 216 220 232 244
213 212 212 214 214 213 211 212 213 214 212 208 205 205 206 208 209 212 208 196 195 215 211 201 194 196 195 196 193 191 197 195 197 205 194 203 203 215 207 218 227 237 253
223 217 203 205 205 204 203 202 203 205 206 209 215 212 207 204 205 207 202 227 223 194 199 191 195 193 192 199 198 201 196 203 188 206 202 210 211 205 213 225 235 250 256
204 207 208 210 213 212 213 214 210 208 206 205 198 197 200 198 204 222 230 204 195 194 194 193 200 205 198 195 199 195 201 185 196 204 203 208 209 211 223 233 247 258 243
201 209 211 211 213 218 216 202 203 206 203 198 199 203 222 230 214 212 202 201 197 196 198 199 197 202 204 207 207 210 209 202 201 200 209 211 218 224 229 245 257 243 245
209 219 211 207 207 221 212 206 210 207 201 202 199 200 202 203 201 200 196 196 199 197 196 199 198 200 205 205 211 203 202 198 197 201 214 222 226 233 242 257 241 244 252
204 202 206 208 209 210 208 202 206 208 206 208 206 200 200 198 199 199 200 200 199 198 198 204 204 205 194 213 194 203 201 197 195 216 215 228 235 245 257 240 244 249 279
209 202 205 205 201 199 211 211 203 204 203 205 204 202 200 200 201 198 196 197 199 203 206 207 208 196 213 215 201 198 195 210 215 218 228 235 249 253 241 245 248 278 304
240 227 217 210 207 204 199 219 208 211 212 209 206 204 205 201 196 194 198 200 203 202 195 208 202 214 206 197 193 205 207 217 223 231 235 249 241 243 241 256 284 305 335
267 249 234 225 221 214 210 207 205 205 204 203 201 207 211 210 208 204 204 202 202 202 206 189 209 201 199 193 208 206 221 224 238 234 247 232 241 241 255 284 303 334 355
245 257 273 249 233 202 216 213 212 210 208 203 204 204 204 206 204 203 203 205 204 196 214 201 213 203 198 213 207 235 206 242 235 249 229 238 242 252 286 305 333 337 420
217 251 259 279 267 249 237 230 220 219 216 214 212 214 215 213 212 212 213 215 214 204 212 218 216 219 223 232 238 239 243 241 254 229 241 242 255 288 301 331 347 424 419
172 217 240 264 286 268 257 245 236 231 226 225 224 221 221 205 215 216 220 217 216 217 221 222 230 239 248 239 241 238 244 246 233 240 243 257 287 285 327 319 428 424 416
211 202 250 225 217 229 232 190 243 247 247 251 258 256 243 199 236 236 236 235 236 244 254 254 249 238 241 242 241 249 232 231 239 242 265 291 279 330 331 434 418 449 418
204 196 244 255 249 218 211 210 223 222 222 221 235 265 264 263 256 254 257 257 251 246 245 246 245 245 245 248 238 230 231 240 245 274 292 287 318 322 439 422 400 437 419
215 223 227 236 246 230 230 240 242 227 239 259 257 263 262 263 260 255 248 245 248 251 259 253 248 244 236 234 235 240 242 253 275 295 285 311 319 436 420 399 382 372 425
214 219 220 231 236 230 229 237 231 261 255 258 259 264 260 241 231 237 258 266 259 250 242 236 230 230 237 240 243 248 266 282 295 283 323 315 347 416 402 386 373 369 377